FW1476 Weather Reports


time (UTC)temp
C
wind
direction
speed
KPH
gust
KPH
rain 1hr
cm
rain 24hr
cm
rain mn
cm
humidity
%
barometer
mb
20260906164533 23 122 3.2 17.7 0.00 0.00 0.00 86 1022.2
20260906163110 23 150 6.4 12.9 0.00 0.00 0.00 86 1022.3
20260906163004 23 122 6.4 12.9 0.00 0.00 0.00 86 1022.2
20260906161532 23 124 3.2 11.3 0.00 0.00 0.00 86 1022.1
20260906160006 22 113 4.8 14.5 0.00 0.00 0.00 88 1022.2
20260906154525 22 111 3.2 11.3 0.00 0.00 0.00 90 1022.3
20260906153057 21 86 3.2 8.0 0.00 0.00 0.00 92 1022.2
20260906151521 21 68 3.2 12.9 0.00 0.00 0.00 91 1022.5
20260906150108 21 85 1.6 8.0 0.00 0.00 0.00 92 1022.5
20260906144514 21 139 3.2 6.4 0.00 0.00 0.00 92 1022.3
20260906143049 21 60 3.2 9.7 0.00 0.00 0.00 92 1022.1
20260906141508 21 92 1.6 9.7 0.00 0.00 0.00 93 1022.2
20260906140039 21 129 4.8 11.3 0.00 0.00 0.00 93 1021.9
20260906134509 20 102 3.2 11.3 0.00 0.00 0.00 93 1022.0
20260906133051 20 109 3.2 12.9 0.00 0.00 0.00 95 1021.9
20260906131511 20 113 9.7 17.7 0.00 0.00 0.00 96 1021.7
20260906130037 20 78 6.4 14.5 0.00 0.00 0.00 97 1021.4
20260906124503 20 108 4.8 16.1 0.00 0.00 0.00 97 1021.4
20260906123025 20 119 8.0 16.1 0.00 0.00 0.00 97 1021.3
20260906121556 20 121 6.4 12.9 0.00 0.00 0.00 98 1021.3
20260906120030 20 112 6.4 14.5 0.00 0.00 0.00 98 1021.4
20260906114548 20 129 4.8 11.3 0.00 0.00 0.00 98 1021.3
20260906113013 20 118 3.2 9.7 0.00 0.00 0.00 98 1021.1
20260906111545 20 115 1.6 6.4 0.00 0.00 0.00 98 1021.1
20260906110012 20 123 0.0 4.8 0.00 0.00 0.00 97 1021.0
20260906104539 20 112 1.6 6.4 0.00 0.00 0.00 97 1020.7
20260906103011 20 115 3.2 6.4 0.00 0.00 0.00 97 1020.7
20260906101533 20 119 0.0 4.8 0.00 0.00 0.00 97 1020.8
20260906100005 20 120 3.2 6.4 0.00 0.00 0.00 97 1020.7
20260906094528 20 133 3.2 11.3 0.00 0.00 0.00 97 1020.1
20260906093054 20 112 3.2 11.3 0.00 0.00 0.00 97 1019.8
20260906091525 20 93 4.8 11.3 0.00 0.00 0.00 97 1019.5
20260906090053 21 94 3.2 11.3 0.00 0.00 0.00 96 1019.7
20260906084523 21 95 1.6 9.7 0.00 0.00 0.00 96 1019.7
20260906083051 21 96 4.8 11.3 0.00 0.00 0.00 96 1019.6
20260906081519 21 125 4.8 12.9 0.00 0.00 0.00 95 1019.6
20260906080040 21 99 6.4 12.9 0.00 0.00 0.00 95 1019.7
20260906074513 21 104 3.2 14.5 0.00 0.00 0.00 94 1019.7
20260906073040 21 75 8.0 16.1 0.00 0.00 0.00 94 1019.7
20260906071514 21 93 1.6 12.9 0.00 0.00 0.00 94 1019.8
20260906070042 22 110 3.2 16.1 0.00 0.00 0.00 94 1020.0
20260906064517 22 80 4.8 12.9 0.00 0.00 0.00 94 1020.5
20260906063043 22 68 4.8 14.5 0.00 0.00 0.00 93 1020.5
20260906061511 22 62 3.2 11.3 0.00 0.00 0.00 93 1020.5
20260906060027 22 85 4.8 12.9 0.00 0.00 0.00 92 1020.4
20260906054604 22 68 8.0 14.5 0.00 0.00 0.00 93 1020.2
20260906053024 22 84 3.2 11.3 0.00 0.00 0.00 93 1019.9
20260906051606 22 85 4.8 9.7 0.00 0.00 0.00 93 1019.9
20260906050025 22 54 4.8 9.7 0.00 0.00 0.00 92 1019.7
20260906044550 22 62 4.8 12.9 0.00 0.00 0.00 92 1019.9
20260906043018 23 66 3.2 9.7 0.00 0.00 0.00 91 1019.8
20260906041542 23 83 1.6 6.4 0.00 0.00 0.00 91 1019.8
20260906040026 23 81 1.6 6.4 0.00 0.00 0.00 91 1019.7
20260906034555 23 60 0.0 6.4 0.00 0.00 0.00 91 1019.8
20260906033038 23 62 3.2 9.7 0.00 0.00 0.00 90 1019.6
20260906031545 23 87 0.0 6.4 0.00 0.00 0.00 90 1019.5
20260906030016 23 92 1.6 9.7 0.00 0.00 0.00 90 1019.2
20260906024542 23 84 3.2 9.7 0.00 0.00 0.00 90 1019.2
20260906023104 23 104 3.2 9.7 0.00 0.00 0.00 90 1019.0
20260906021528 24 65 4.8 9.7 0.00 0.00 0.00 90 1018.9
20260906020101 24 82 4.8 12.9 0.00 0.00 0.00 90 1018.6
20260906020002 24 85 3.2 12.9 0.00 0.00 0.00 90 1018.6
20260906014532 25 81 4.8 9.7 0.00 0.00 0.00 89 1018.3
20260906013109 25 77 1.6 6.4 0.00 0.00 0.00 88 1018.1
20260906011526 25 87 0.0 1.6 0.00 0.00 0.00 88 1017.8
20260906010052 25 89 0.0 4.8 0.00 0.00 0.00 88 1017.8
20260906004523 25 102 0.0 0.0 0.00 0.00 0.00 88 1017.6
20260906003054 25 102 0.0 3.2 0.00 0.00 0.00 88 1017.6
20260906001524 25 103 3.2 9.7 0.00 0.00 0.00 87 1017.4
20260906000051 25 87 4.8 11.3 0.00 0.00 0.00 86 1017.3
20260905234510 26 83 3.2 8.0 0.00 0.00 0.00 84 1017.5
20260905233055 26 64 4.8 14.5 0.00 0.00 0.00 82 1017.5
20260905231520 27 73 4.8 14.5 0.00 0.00 0.00 80 1017.6
20260905230043 27 93 1.6 17.7 0.00 0.00 0.00 82 1017.2
20260905224534 27 64 9.7 19.3 0.00 0.00 0.00 82 1017.0
20260905223048 27 44 9.7 20.9 0.00 0.00 0.00 80 1017.0
20260905221519 27 60 9.7 20.9 0.00 0.00 0.00 81 1017.1
20260905220054 28 63 11.3 22.5 0.00 0.00 0.00 82 1017.1
20260905214528 28 83 6.4 20.9 0.00 0.00 0.00 80 1017.1
20260905213101 28 49 9.7 20.9 0.00 0.00 0.00 80 1017.1
20260905211537 28 60 8.0 20.9 0.00 0.00 0.00 81 1017.1
20260905210049 28 29 9.7 20.9 0.00 0.00 0.00 83 1017.5
20260905204517 28 55 6.4 16.1 0.00 0.00 0.00 82 1017.7
20260905203047 28 59 8.0 17.7 0.00 0.00 0.00 82 1017.9
20260905201522 28 66 4.8 16.1 0.00 0.00 0.00 80 1018.0
20260905200047 29 54 8.0 17.7 0.00 0.00 0.00 81 1018.0
20260905194521 29 64 6.4 17.7 0.00 0.00 0.00 80 1018.1
20260905193043 29 34 6.4 17.7 0.00 0.00 0.00 80 1018.2
20260905191517 29 44 6.4 16.1 0.00 0.00 0.00 80 1018.4
20260905190044 29 16 1.6 14.5 0.00 0.00 0.00 80 1018.6
20260905184526 29 23 3.2 14.5 0.00 0.00 0.00 82 1018.6
20260905183049 28 67 6.4 14.5 0.00 0.00 0.00 82 1018.6
20260905181510 28 38 3.2 16.1 0.00 0.00 0.00 83 1018.7
20260905180042 28 218 3.2 14.5 0.00 0.00 0.00 84 1018.5
20260905174503 28 9 6.4 19.3 0.00 0.00 0.00 83 1018.3
20260905173100 29 31 9.7 20.9 0.00 0.00 0.00 83 1018.3
20260905171557 30 45 9.7 19.3 0.00 0.00 0.00 81 1018.4
20260905170035 30 66 9.7 20.9 0.00 0.00 0.00 81 1018.4